Terminal Aerodrome Forecast
Issued by NWS

Home | Current Version | Previous Version | Text Only | Print | Product List | Glossary On
Versions: 1 2 3 4 5 6 7 8 9 10 11 12 13 14 15 16
000
FTUS42 TJSJ 291125
TAFJSJ
TAF
TJSJ 291125Z 2912/3012 11005KT P6SM VCSH SCT025 SCT050
     FM291530 08012KT P6SM VCTS SCT030CB BKN050
     FM292300 11005KT P6SM SCT060=

USA.gov is the U.S. government's official web portal to all federal, state and local government web resources and services.